Zurück zum Katalog

STARLINK-11109

AktivKommunikationVLEO
NORAD 60306·PAYLOAD·🇺🇸 United States

Gestartet Jul 28, 2024 von Vandenberg Space Force Base

Loading…

Nächste Überflüge (nächste 24 Stunden)

TLE

AktuellSource: CelesTrak SupGP

Epoche: Sep 15, 2026, 02:42 UTC

1 60306C 24133F   26258.11298611  .00053949  00000+0  44408-3 0  2580
2 60306  53.1574 292.3654 0001219  89.6483 359.0824 15.69699632    12

Verfolge STARLINK-11109 in Echtzeit mit AllMySat

Download on the App Store